Location: Armidale
(30.5016°S, 151.6662°E)
Time: 11:26:09
(UTC+10:00)

AAUSAT CUBESAT 2 - Visible Passes

Search period start: 05 August 2021 00:00
Search period end: 15 August 2021 00:00
Orbit: 571 x 589 km, 97.5° (Epoch: 04 August)

Date Brightness Start Highest point End Pass type
(mag) Time Alt. Az. Time Alt. Az. Time Alt. Az.
05 Aug ? 04:18:21 10° NNE 04:20:19 26° NE 04:20:19 26° NE visible
05 Aug ? 17:40:28 10° S 17:44:20 36° WSW 17:48:08 10° NW visible
06 Aug ? 04:23:17 10° NNE 04:25:29 30° NNE 04:25:29 30° NNE visible
06 Aug ? 17:45:35 10° SSW 17:49:19 31° WSW 17:52:59 10° NW visible
07 Aug ? 04:28:15 10° NNE 04:30:38 34° NNE 04:30:38 34° NNE visible
07 Aug ? 17:50:44 10° SSW 17:54:18 27° WSW 17:57:47 10° NW visible
08 Aug ? 04:33:14 10° NNE 04:35:49 38° NNE 04:35:49 38° NNE visible
08 Aug ? 17:55:54 10° SSW 17:59:16 23° WSW 18:02:34 10° NW visible
09 Aug ? 04:38:14 10° N 04:40:59 41° N 04:40:59 41° N visible
09 Aug ? 18:01:07 10° SSW 18:04:13 20° WSW 18:07:18 10° WNW visible
10 Aug ? 04:43:15 10° N 04:46:10 44° NNW 04:46:10 44° NNW visible
10 Aug ? 18:06:21 10° SSW 18:09:11 18° WSW 18:11:59 10° WNW visible
11 Aug ? 04:48:17 10° N 04:51:22 44° NNW 04:51:22 44° NNW visible
11 Aug ? 18:11:38 10° SSW 18:14:08 15° WSW 18:16:36 10° WNW visible
12 Aug ? 04:53:21 10° N 04:56:34 43° NW 04:56:34 43° NW visible
12 Aug ? 18:17:01 10° SW 18:19:05 13° WSW 18:21:07 10° W visible
13 Aug ? 04:58:26 10° N 05:01:46 39° WNW 05:01:46 39° WNW visible
13 Aug ? 18:22:34 10° SW 18:24:00 12° WSW 18:25:27 10° W visible
14 Aug ? 03:30:23 10° E 03:30:40 11° E 03:30:40 11° E visible
14 Aug ? 05:03:33 10° NNW 05:07:00 35° WNW 05:07:00 35° WNW visible
